Time,TemperatureF,DewpointF,PressureIn,WindDirection,WindDirectionDegrees,WindSpeedMPH,WindSpeedGustMPH,Humidity,HourlyPrecipIn,Conditions,Clouds,dailyrainin,SoftwareType,DateUTC
2013-10-13 00:07:00,58.3,57.7,29.89,West,270,0.0,-999.0,98,-99.99,,,0.00,Acu-Link.com,2013-10-13 04:07:00,
2013-10-13 00:22:00,57.7,57.1,29.89,ESE,112,0.0,-999.0,98,-99.99,,,0.00,Acu-Link.com,2013-10-13 04:22:00,
2013-10-13 00:37:00,57.7,57.1,29.88,WSW,247,0.0,-999.0,98,-99.99,,,0.00,Acu-Link.com,2013-10-13 04:37:00,
2013-10-13 00:52:00,57.6,57.3,29.89,West,270,0.0,-999.0,99,-99.99,,,0.00,Acu-Link.com,2013-10-13 04:52:00,
2013-10-13 01:08:00,57.2,56.6,29.90,West,270,0.0,-999.0,98,-99.99,,,0.00,Acu-Link.com,2013-10-13 05:08:00,
2013-10-13 01:23:00,57.2,56.9,29.89,SSW,202,0.0,-999.0,99,-99.99,,,0.00,Acu-Link.com,2013-10-13 05:23:00,
2013-10-13 01:38:00,56.8,56.5,29.89,SSW,202,0.0,-999.0,99,-99.99,,,0.00,Acu-Link.com,2013-10-13 05:38:00,
2013-10-13 01:53:00,56.8,56.5,29.89,NNW,337,0.0,-999.0,99,-99.99,,,0.00,Acu-Link.com,2013-10-13 05:53:00,
2013-10-13 02:08:00,56.5,55.9,29.90,SE,135,0.0,-999.0,98,-99.99,,,0.00,Acu-Link.com,2013-10-13 06:08:00,
2013-10-13 02:23:00,56.8,56.5,29.90,SW,225,0.0,-999.0,99,-99.99,,,0.00,Acu-Link.com,2013-10-13 06:23:00,
2013-10-13 02:40:00,56.1,55.8,29.91,SSW,202,0.0,-999.0,99,-99.99,,,0.00,Acu-Link.com,2013-10-13 06:40:00,
2013-10-13 02:55:00,56.1,55.8,29.90,ESE,112,0.0,-999.0,99,-99.99,,,0.00,Acu-Link.com,2013-10-13 06:55:00,
2013-10-13 03:11:00,56.1,55.8,29.90,ESE,112,0.0,-999.0,99,-99.99,,,0.00,Acu-Link.com,2013-10-13 07:11:00,
2013-10-13 03:27:00,55.9,55.6,29.91,NW,315,0.0,-999.0,99,-99.99,,,0.00,Acu-Link.com,2013-10-13 07:27:00,
2013-10-13 03:42:00,55.8,55.5,29.90,South,180,0.0,-999.0,99,-99.99,,,0.00,Acu-Link.com,2013-10-13 07:42:00,
2013-10-13 03:59:00,55.6,55.3,29.90,ESE,112,0.0,-999.0,99,-99.99,,,0.00,Acu-Link.com,2013-10-13 07:59:00,
2013-10-13 04:14:00,55.4,55.1,29.91,SE,135,0.0,-999.0,99,-99.99,,,0.00,Acu-Link.com,2013-10-13 08:14:00,
2013-10-13 04:30:00,55.2,54.9,29.90,North,0,0.0,-999.0,99,-99.99,,,0.00,Acu-Link.com,2013-10-13 08:30:00,
2013-10-13 04:45:00,55.6,55.3,29.91,SSE,157,0.0,-999.0,99,-99.99,,,0.00,Acu-Link.com,2013-10-13 08:45:00,
2013-10-13 05:00:00,54.9,54.6,29.90,SE,135,0.0,-999.0,99,-99.99,,,0.00,Acu-Link.com,2013-10-13 09:00:00,
2013-10-13 05:15:00,54.9,54.6,29.91,SSW,202,0.0,-999.0,99,-99.99,,,0.00,Acu-Link.com,2013-10-13 09:15:00,
2013-10-13 05:30:00,55.2,54.9,29.91,SSW,202,0.0,-999.0,99,-99.99,,,0.00,Acu-Link.com,2013-10-13 09:30:00,
2013-10-13 05:46:00,54.9,54.6,29.92,SSE,157,0.0,-999.0,99,-99.99,,,0.00,Acu-Link.com,2013-10-13 09:46:00,
2013-10-13 06:01:00,55.0,54.7,29.93,SSE,157,0.0,-999.0,99,-99.99,,,0.00,Acu-Link.com,2013-10-13 10:01:00,
2013-10-13 06:16:00,54.3,54.0,29.93,ESE,112,0.0,-999.0,99,-99.99,,,0.00,Acu-Link.com,2013-10-13 10:16:00,
2013-10-13 06:31:00,54.3,54.0,29.94,NE,45,0.0,-999.0,99,-99.99,,,0.00,Acu-Link.com,2013-10-13 10:31:00,
2013-10-13 06:46:00,53.6,53.3,29.95,SSE,157,0.0,-999.0,99,-99.99,,,0.00,Acu-Link.com,2013-10-13 10:46:00,
2013-10-13 07:02:00,53.6,53.3,29.95,SSE,157,0.0,-999.0,99,-99.99,,,0.00,Acu-Link.com,2013-10-13 11:02:00,
2013-10-13 07:17:00,53.8,53.5,29.95,SSE,157,0.0,-999.0,99,-99.99,,,0.00,Acu-Link.com,2013-10-13 11:17:00,
2013-10-13 07:32:00,53.4,53.1,29.95,SSE,157,0.0,-999.0,99,-99.99,,,0.00,Acu-Link.com,2013-10-13 11:32:00,
2013-10-13 07:47:00,53.6,53.3,29.96,SSW,202,0.0,-999.0,99,-99.99,,,0.00,Acu-Link.com,2013-10-13 11:47:00,
2013-10-13 08:02:00,53.8,53.5,29.96,SSE,157,0.0,-999.0,99,-99.99,,,0.00,Acu-Link.com,2013-10-13 12:02:00,
2013-10-13 08:17:00,54.3,54.0,29.97,South,180,0.0,-999.0,99,-99.99,,,0.00,Acu-Link.com,2013-10-13 12:17:00,
2013-10-13 08:32:00,54.5,54.2,29.97,SSE,157,0.0,-999.0,99,-99.99,,,0.00,Acu-Link.com,2013-10-13 12:32:00,
2013-10-13 08:47:00,55.8,55.5,29.98,South,180,0.0,-999.0,99,-99.99,,,0.00,Acu-Link.com,2013-10-13 12:47:00,
2013-10-13 09:02:00,58.8,57.1,29.98,SSW,202,0.0,-999.0,94,-99.99,,,0.00,Acu-Link.com,2013-10-13 13:02:00,
2013-10-13 09:17:00,59.0,58.1,29.99,SW,225,0.0,-999.0,97,-99.99,,,0.00,Acu-Link.com,2013-10-13 13:17:00,
2013-10-13 09:33:00,61.2,59.8,29.99,WSW,247,0.0,-999.0,95,-99.99,,,0.00,Acu-Link.com,2013-10-13 13:33:00,
2013-10-13 09:48:00,62.4,60.3,30.00,SSW,202,0.0,-999.0,93,-99.99,,,0.00,Acu-Link.com,2013-10-13 13:48:00,
2013-10-13 10:03:00,65.3,62.0,30.00,SW,225,0.0,-999.0,89,-99.99,,,0.00,Acu-Link.com,2013-10-13 14:03:00,
2013-10-13 10:18:00,66.7,62.4,30.00,SW,225,0.0,-999.0,86,-99.99,,,0.00,Acu-Link.com,2013-10-13 14:18:00,
2013-10-13 10:33:00,70.2,63.0,30.00,West,270,0.0,-999.0,78,-99.99,,,0.00,Acu-Link.com,2013-10-13 14:33:00,
2013-10-13 10:48:00,73.8,62.6,30.00,NNE,22,2.7,-999.0,68,-99.99,,,0.00,Acu-Link.com,2013-10-13 14:48:00,
2013-10-13 11:03:00,72.9,62.1,30.00,SW,225,1.1,-999.0,69,-99.99,,,0.00,Acu-Link.com,2013-10-13 15:03:00,
2013-10-13 11:18:00,76.5,62.5,29.99,North,0,1.7,-999.0,62,-99.99,,,0.00,Acu-Link.com,2013-10-13 15:18:00,
2013-10-13 11:33:00,76.5,62.0,29.99,ESE,112,0.0,-999.0,61,-99.99,,,0.00,Acu-Link.com,2013-10-13 15:33:00,
2013-10-13 11:49:00,78.1,62.6,30.00,SW,225,1.1,-999.0,59,-99.99,,,0.00,Acu-Link.com,2013-10-13 15:49:00,
2013-10-13 12:04:00,78.4,61.9,29.99,South,180,0.0,-999.0,57,-99.99,,,0.00,Acu-Link.com,2013-10-13 16:04:00,
2013-10-13 12:19:00,77.7,62.2,29.99,North,0,0.0,-999.0,59,-99.99,,,0.00,Acu-Link.com,2013-10-13 16:19:00,
2013-10-13 12:34:00,81.5,62.7,29.98,WSW,247,0.0,-999.0,53,-99.99,,,0.00,Acu-Link.com,2013-10-13 16:34:00,
2013-10-13 12:49:00,81.5,61.6,29.98,ENE,67,1.1,-999.0,51,-99.99,,,0.00,Acu-Link.com,2013-10-13 16:49:00,
2013-10-13 13:04:00,81.5,62.7,29.97,SW,225,0.0,-999.0,53,-99.99,,,0.00,Acu-Link.com,2013-10-13 17:04:00,
2013-10-13 13:19:00,81.9,62.0,29.96,NE,45,1.7,-999.0,51,-99.99,,,0.00,Acu-Link.com,2013-10-13 17:19:00,
2013-10-13 13:34:00,83.1,61.9,29.96,NE,45,2.7,-999.0,49,-99.99,,,0.00,Acu-Link.com,2013-10-13 17:34:00,
2013-10-13 13:49:00,84.0,61.0,29.96,SSE,157,1.7,-999.0,46,-99.99,,,0.00,Acu-Link.com,2013-10-13 17:49:00,
2013-10-13 14:05:00,83.7,61.3,29.95,ESE,112,1.1,-999.0,47,-99.99,,,0.00,Acu-Link.com,2013-10-13 18:05:00,
2013-10-13 14:20:00,84.2,61.1,29.94,SE,135,4.2,-999.0,46,-99.99,,,0.00,Acu-Link.com,2013-10-13 18:20:00,
2013-10-13 14:35:00,83.1,60.1,29.94,South,180,0.0,-999.0,46,-99.99,,,0.00,Acu-Link.com,2013-10-13 18:35:00,
2013-10-13 14:50:00,84.0,61.0,29.93,SSW,202,1.1,-999.0,46,-99.99,,,0.00,Acu-Link.com,2013-10-13 18:50:00,
2013-10-13 15:05:00,84.2,60.5,29.93,West,270,2.7,-999.0,45,-99.99,,,0.00,Acu-Link.com,2013-10-13 19:05:00,
2013-10-13 15:20:00,83.1,60.1,29.92,NNE,22,1.7,-999.0,46,-99.99,,,0.00,Acu-Link.com,2013-10-13 19:20:00,
2013-10-13 15:35:00,82.2,59.3,29.92,SW,225,0.0,-999.0,46,-99.99,,,0.00,Acu-Link.com,2013-10-13 19:35:00,
2013-10-13 15:50:00,82.0,60.3,29.92,West,270,0.0,-999.0,48,-99.99,,,0.00,Acu-Link.com,2013-10-13 19:50:00,
2013-10-13 16:05:00,77.9,62.4,29.91,SSW,202,0.0,-999.0,59,-99.99,,,0.00,Acu-Link.com,2013-10-13 20:05:00,
2013-10-13 16:21:00,81.0,60.6,29.91,SW,225,2.2,-999.0,50,-99.99,,,0.00,Acu-Link.com,2013-10-13 20:21:00,
2013-10-13 16:36:00,81.3,59.7,29.91,West,270,1.1,-999.0,48,-99.99,,,0.00,Acu-Link.com,2013-10-13 20:36:00,
2013-10-13 16:51:00,82.2,60.5,29.91,ENE,67,1.7,-999.0,48,-99.99,,,0.00,Acu-Link.com,2013-10-13 20:51:00,
2013-10-13 17:06:00,80.4,62.2,29.92,West,270,0.0,-999.0,54,-99.99,,,0.00,Acu-Link.com,2013-10-13 21:06:00,
2013-10-13 17:21:00,77.5,62.5,29.91,SW,225,0.0,-999.0,60,-99.99,,,0.00,Acu-Link.com,2013-10-13 21:21:00,
2013-10-13 17:36:00,75.6,63.0,29.91,SW,225,0.0,-999.0,65,-99.99,,,0.00,Acu-Link.com,2013-10-13 21:36:00,
2013-10-13 17:51:00,74.8,63.5,29.92,SW,225,0.0,-999.0,68,-99.99,,,0.00,Acu-Link.com,2013-10-13 21:51:00,
2013-10-13 18:06:00,74.1,63.3,29.91,WSW,247,0.0,-999.0,69,-99.99,,,0.00,Acu-Link.com,2013-10-13 22:06:00,
2013-10-13 18:21:00,72.7,63.1,29.93,WSW,247,0.0,-999.0,72,-99.99,,,0.00,Acu-Link.com,2013-10-13 22:21:00,
2013-10-13 18:37:00,72.3,63.9,29.93,WSW,247,0.0,-999.0,75,-99.99,,,0.00,Acu-Link.com,2013-10-13 22:37:00,
2013-10-13 18:52:00,71.6,63.2,29.92,SW,225,0.0,-999.0,75,-99.99,,,0.00,Acu-Link.com,2013-10-13 22:52:00,
2013-10-13 19:07:00,71.1,62.8,29.92,SW,225,0.0,-999.0,75,-99.99,,,0.00,Acu-Link.com,2013-10-13 23:07:00,
2013-10-13 19:22:00,70.9,62.6,29.93,SW,225,0.0,-999.0,75,-99.99,,,0.00,Acu-Link.com,2013-10-13 23:22:00,
2013-10-13 19:37:00,70.3,62.7,29.93,SW,225,0.0,-999.0,77,-99.99,,,0.00,Acu-Link.com,2013-10-13 23:37:00,
2013-10-13 19:52:00,69.8,62.6,29.93,SW,225,0.0,-999.0,78,-99.99,,,0.00,Acu-Link.com,2013-10-13 23:52:00,
2013-10-13 20:07:00,69.6,62.8,29.94,WSW,247,0.0,-999.0,79,-99.99,,,0.00,Acu-Link.com,2013-10-14 00:07:00,
2013-10-13 20:22:00,68.9,63.5,29.94,WSW,247,0.0,-999.0,83,-99.99,,,0.00,Acu-Link.com,2013-10-14 00:22:00,
2013-10-13 20:37:00,68.5,63.8,29.95,West,270,0.0,-999.0,85,-99.99,,,0.00,Acu-Link.com,2013-10-14 00:37:00,
2013-10-13 20:52:00,68.2,63.8,29.96,WSW,247,0.0,-999.0,86,-99.99,,,0.00,Acu-Link.com,2013-10-14 00:52:00,
2013-10-13 21:08:00,67.5,63.8,29.95,WSW,247,0.0,-999.0,88,-99.99,,,0.00,Acu-Link.com,2013-10-14 01:08:00,
2013-10-13 21:23:00,66.7,63.4,29.96,West,270,0.0,-999.0,89,-99.99,,,0.00,Acu-Link.com,2013-10-14 01:23:00,
2013-10-13 21:38:00,66.2,63.2,29.97,WSW,247,0.0,-999.0,90,-99.99,,,0.00,Acu-Link.com,2013-10-14 01:38:00,
2013-10-13 21:53:00,65.7,63.3,29.99,West,270,0.0,-999.0,92,-99.99,,,0.00,Acu-Link.com,2013-10-14 01:53:00,
2013-10-13 22:08:00,65.1,62.7,29.99,West,270,0.0,-999.0,92,-99.99,,,0.00,Acu-Link.com,2013-10-14 02:08:00,
2013-10-13 22:23:00,64.6,62.5,29.99,WSW,247,0.0,-999.0,93,-99.99,,,0.00,Acu-Link.com,2013-10-14 02:23:00,
2013-10-13 22:38:00,64.2,62.7,29.98,WSW,247,0.0,-999.0,95,-99.99,,,0.00,Acu-Link.com,2013-10-14 02:38:00,
2013-10-13 22:53:00,63.7,62.5,29.99,West,270,0.0,-999.0,96,-99.99,,,0.00,Acu-Link.com,2013-10-14 02:53:00,
2013-10-13 23:08:00,63.7,62.5,29.98,SW,225,0.0,-999.0,96,-99.99,,,0.00,Acu-Link.com,2013-10-14 03:08:00,
2013-10-13 23:24:00,63.5,62.6,29.98,WSW,247,0.0,-999.0,97,-99.99,,,0.00,Acu-Link.com,2013-10-14 03:24:00,
2013-10-13 23:39:00,63.1,62.2,29.98,South,180,0.0,-999.0,97,-99.99,,,0.00,Acu-Link.com,2013-10-14 03:39:00,
2013-10-13 23:54:00,62.8,62.2,29.98,WNW,292,0.0,-999.0,98,-99.99,,,0.00,Acu-Link.com,2013-10-14 03:54:00,